Regional Weather Roundup
Issued by NWS

Home | Current Version | Previous Version | Graphics & Text | Print | Product List | Glossary On
Versions: 1 2 3 4 5 6 7 8 9 10 11 12 13 14 15 16 17 18 19 20 21 22 23 24 25 26 27 28 29 30 31 32 33 34 35 36 37 38 39 40 41 42 43 44 45 46 47 48 49 50
640
ASUS45 KBOI 171310
RWRID

IDAHO REGIONAL WEATHER ROUNDUP
NATIONAL WEATHER SERVICE BOISE ID
600 AM MST TUE JAN 17 2017

NOTE: "FAIR" INDICATES FEW OR NO CLOUDS BELOW 12000 FEET
WITH NO SIGNIFICANT WEATHER AND/OR OBSTRUCTIONS TO VISIBILITY

IDZ012-014-171400-
SOUTHWEST IDAHO


CITY           SKY/WX    TMP DP  RH WIND       PRES   REMARKS
BOISE          CLEAR      1  -2  87 CALM      30.35F FOG
CALDWELL       MOCLDY    -5  -9  83 CALM      30.43F FOG
MOUNTAIN HOME  DRZL/FOG   3   3 100 CALM      30.34F VSB 3/4
$$

IDZ016-017-171400-
SOUTHCENTRAL IDAHO


CITY           SKY/WX    TMP DP  RH WIND       PRES   REMARKS
BURLEY         CLEAR      6   1  80 E10       30.25S WCI  -9
JEROME         CLEAR      4   0  83 NE16      30.25S WCI -15
TWIN FALLS     CLEAR      6   3  87 E7        30.24F WCI  -6
$$

IDZ019>023-171400-
SOUTHEAST IDAHO


CITY           SKY/WX    TMP DP  RH WIND       PRES   REMARKS
IDAHO FALLS    CLOUDY    -6  -9  86 NE5       30.26F WCI -17
POCATELLO      CLOUDY    -3  -7  82 E3        30.28S
REXBURG        CLOUDY    -5  -9  83 NE6       30.25F WCI -18
$$

IDZ006-010-011-018-031-032-171400-
CENTRAL IDAHO MOUNTAINS


CITY           SKY/WX    TMP DP  RH WIND       PRES   REMARKS
MCCALL         CLOUDY     0  -6  76 CALM      30.15S
HAILEY         PTCLDY     0  -4  85 NW6       30.20F WCI -12
STANLEY          N/A    -11 -16  78 CALM      30.18F
SALMON         CLOUDY   -17 -18  91 CALM      30.38S
CHALLIS        CLEAR    -15 -19  82 S3        30.27S
$$

IDZ002-004-006-007-026-171400-
NORTHERN IDAHO


CITY           SKY/WX    TMP DP  RH WIND       PRES   REMARKS
LEWISTON       CLOUDY    22  13  68 CALM      30.11F
LOWELL           N/A     14   9  80 NW8       30.23F WCI   3
COEUR D`ALENE  PTCLDY    12   9  87 CALM      30.06F
MULLAN PASS    CLOUDY    24  15  68 S8        29.93F WCI  15
$$




USA.gov is the U.S. government's official web portal to all federal, state and local government web resources and services.